Tracking 26951 objects as of 3-Feb-2023
HD Live streaming from Space Station
objects crossing your sky now

SCOUT G-1 DEB

Track SCOUT G-1 DEB now!
10-day predictions


NORAD ID: 35526
Int'l Code: 1988-074P
Perigee: 992.9 km
Apogee: 1,110.0 km
Inclination: 90.0 °
Period: 106.1 minutes
Semi major axis: 7422 km
RCS: 0.0052 m2 (small)
Launch date: August 25, 1988
Source: United States (US)
Launch site: AIR FORCE WESTERN TEST RANGE (AFWTR)

Note: This is SATELLITE DEBRIS
Your satellite tracking list
Your tracking list is empty




NASA's NSSDC Master Catalog

Two Line Element Set (TLE):
1 35526U 88074P   23011.29096244  .00001346  00000-0  18251-2 0  9994
2 35526  90.0089  20.5815 0078875 331.2092  87.9106 13.57643006 19764
Source of the keplerian elements: AFSPC